{"data":{"norad_id":68889,"intl_designator":"2026-095AB","name":"KUIPER-00512","alt_names":[],"object_type":"PAYLOAD","status":"ACTIVE","operator":null,"country":"US","launch_date":"2026-04-28","launch_site_code":"AFETR","launch_vehicle":null,"mission":null,"orbit_class":"UNKNOWN","rcs_meters":null,"size_class":null,"mass_kg":null,"dimensions":null,"purposes":[],"wikipedia_slug":null,"has_3d_model":false,"image_url":null,"decayed_at":null,"tle_current":{"epoch":"2026-05-25T04:00:03.998880Z","epoch_age_seconds":54474,"freshness":"FRESH","line1":"1 68889U 26095AB  26145.16671295 -.01385312  00000+0 -55833-1 0  9995","line2":"2 68889  51.8856 353.9548 0003583 210.8003 148.7506 15.27528073  5279","mean_motion":15.27528073,"eccentricity":0.0003583,"inclination_deg":51.8856,"raan_deg":353.9548,"arg_perigee_deg":210.8003,"mean_anomaly_deg":148.7506,"bstar":-0.055833,"rev_number":527,"period_min":94.269953230509,"perigee_km":480.74616987183,"apogee_km":485.6630072542,"semimajor_km":6861.341588563,"source":"CELESTRAK","updated_at":"2026-05-25T13:38:08.650914Z"}}}